Tracking 28790 objects as of 19-Apr-2024
HD Live streaming from Space Station
objects crossing your sky now

DELTA 1 DEB

Track DELTA 1 DEB now!
10-day predictions


NORAD ID: 7184
Int'l Code: 1973-086EV
Perigee: 1,103.1 km
Apogee: 1,407.9 km
Inclination: 102.3 °
Period: 110.5 minutes
Semi major axis: 7626 km
RCS: 0.0628 m2 (small)
Launch date: November 6, 1973
Source: United States (US)
Launch site: AIR FORCE WESTERN TEST RANGE (AFWTR)

Note: This is SATELLITE DEBRIS
Your satellite tracking list
Your tracking list is empty




NASA's NSSDC Master Catalog

Two Line Element Set (TLE):
1  7184U 73086EV  24110.13584698  .00000997  00000-0  30228-2 0  9998
2  7184 102.2963 334.4382 0199825  30.6903  90.1201 13.03504570380762
Source of the keplerian elements: AFSPC